START_TIME,STEP,MOV.,E45,t_acc.,ALAR?,t_acc.,A12,t_acc.,A24,t_acc.
1989-08-26T18:00:26.930 ,0,0,0.,4.8,0.,4.8,0.,4.8,0.,4.8
1989-08-26T18:00:31.730 ,0,0,0.,4.8,0.,4.8,0.,4.8,0.,4.8
1989-08-26T18:00:36.530 ,0,0,0.,4.8,0.,4.8,0.,4.8,0.,4.8
1989-08-26T18:00:41.330 ,0,0,0.,4.8,0.,4.8,0.,4.8,0.,4.8
1989-08-26T18:00:46.130 ,0,0,0.,4.8,0.,4.8,0.,4.8,0.,4.8
1989-08-26T18:00:50.930 ,0,0,0.,4.8,0.,4.8,0.,4.8,0.,4.8
1989-08-26T18:00:55.730 ,0,0,0.,4.8,0.,4.8,0.,4.8,0.,4.8
1989-08-26T18:01:00.530 ,0,0,0.,4.8,0.,4.8,0.,4.8,0.,4.8
1989-08-26T18:01:05.330 ,0,0,0.,4.8,0.,4.8,0.,4.8,0.,4.8
1989-08-26T18:01:10.130 ,0,0,0.,4.8,0.,4.8,0.,4.8,0.,4.8
1989-08-26T18:01:14.930 ,0,0,0.,4.8,0.,4.8,0.,4.8,0.,4.8
1989-08-26T18:01:19.730 ,0,0,0.,4.8,0.,4.8,0.,4.8,0.,4.8
1989-08-26T18:01:24.530 ,0,0,0.,4.8,0.,4.8,0.,4.8,0.,4.8
1989-08-26T18:01:29.330 ,0,0,0.,4.8,0.,4.8,0.,4.8,0.,4.8
1989-08-26T18:01:34.130 ,0,0,0.,4.8,0.,4.8,0.,4.8,0.,4.8
1989-08-26T18:01:38.930 ,1,0,0.,4.8,0.,4.8,0.,4.8,0.,4.8
1989-08-26T18:01:43.730 ,1,0,0.,4.8,0.,4.8,0.,4.8,0.,4.8
1989-08-26T18:01:48.530 ,1,0,0.,4.8,0.,4.8,0.,4.8,0.,4.8
1989-08-26T18:01:53.330 ,1,0,0.,4.8,0.,4.8,0.,4.8,0.,4.8
1989-08-26T18:01:58.130 ,1,0,0.,4.8,0.,4.8,0.,4.8,0.,4.8
1989-08-26T18:02:02.930 ,1,0,0.,4.8,0.,4.8,0.,4.8,0.,4.8
1989-08-26T18:02:07.730 ,1,0,0.,4.8,0.,4.8,0.,4.8,0.,4.8
1989-08-26T18:02:12.530 ,1,0,0.,4.8,0.,4.8,0.,4.8,0.,4.8
1989-08-26T18:02:17.330 ,1,0,0.,4.8,0.,4.8,0.,4.8,0.,4.8
1989-08-26T18:02:22.130 ,1,0,0.,4.8,0.,4.8,0.,4.8,0.,4.8
1989-08-26T18:02:26.930 ,2,0,0.,4.8,0.,4.8,0.,4.8,0.,4.8
1989-08-26T18:02:31.730 ,2,0,0.,4.8,0.,4.8,0.,4.8,0.,4.8
1989-08-26T18:02:36.530 ,2,0,0.,4.8,0.,4.8,0.,4.8,0.,4.8
1989-08-26T18:02:41.330 ,2,0,0.,4.8,0.,4.8,0.,4.8,0.,4.8
1989-08-26T18:02:46.130 ,2,0,0.,4.8,0.,4.8,0.,4.8,0.,4.8
1989-08-26T18:02:50.930 ,2,0,0.,4.8,0.,4.8,0.,4.8,0.,4.8
1989-08-26T18:02:55.730 ,2,0,0.,4.8,0.,4.8,0.,4.8,0.,4.8
1989-08-26T18:03:00.530 ,2,0,0.,4.8,0.,4.8,0.,4.8,0.,4.8
1989-08-26T18:03:05.330 ,2,0,0.,4.8,0.,4.8,0.,4.8,0.,4.8
1989-08-26T18:03:10.130 ,2,0,0.,4.8,0.,4.8,0.,4.8,0.,4.8
1989-08-26T18:03:14.930 ,3,0,0.,4.8,0.,4.8,0.,4.8,0.,4.8
1989-08-26T18:03:19.730 ,3,0,0.,4.8,0.,4.8,0.,4.8,0.,4.8
1989-08-26T18:03:24.530 ,3,0,0.,4.8,0.,4.8,0.,4.8,0.,4.8
1989-08-26T18:03:29.330 ,3,0,0.,4.8,0.,4.8,0.,4.8,0.,4.8
1989-08-26T18:03:34.130 ,3,0,0.,4.8,0.,4.8,0.,4.8,0.,4.8
1989-08-26T18:03:38.930 ,3,0,0.,4.8,0.,4.8,0.,4.8,0.,4.8
1989-08-26T18:03:43.730 ,3,0,0.,4.8,0.,4.8,0.,4.8,0.,4.8
1989-08-26T18:03:48.530 ,3,0,0.,4.8,0.,4.8,0.,4.8,0.,4.8
1989-08-26T18:03:53.330 ,3,0,0.,4.8,0.,4.8,0.,4.8,0.,4.8
1989-08-26T18:03:58.130 ,3,0,0.,4.8,0.,4.8,0.,4.8,0.,4.8
1989-08-26T18:04:02.930 ,4,0,0.,4.8,0.,4.8,0.,4.8,0.,4.8
1989-08-26T18:04:07.730 ,4,0,0.,4.8,0.,4.8,0.,4.8,0.,4.8
1989-08-26T18:04:12.530 ,4,0,0.,4.8,0.,4.8,0.,4.8,0.,4.8
1989-08-26T18:04:17.330 ,4,0,0.,4.8,0.,4.8,0.,4.8,0.,4.8
1989-08-26T18:04:22.130 ,4,0,0.,4.8,0.,4.8,0.,4.8,0.,4.8
1989-08-26T18:04:26.930 ,4,0,0.,4.8,0.,4.8,0.,4.8,0.,4.8
1989-08-26T18:04:31.730 ,4,0,0.,4.8,0.,4.8,0.,4.8,0.,4.8
1989-08-26T18:04:36.530 ,4,0,0.,4.8,0.,4.8,0.,4.8,0.,4.8
1989-08-26T18:04:41.330 ,4,0,0.,4.8,0.,4.8,0.,4.8,0.,4.8
1989-08-26T18:04:46.130 ,4,0,0.,4.8,0.,4.8,0.,4.8,0.,4.8
1989-08-26T18:04:50.930 ,5,0,0.,4.8,0.,4.8,0.,4.8,0.,4.8
1989-08-26T18:04:55.730 ,5,0,0.,4.8,0.,4.8,0.,4.8,0.,4.8
1989-08-26T18:05:00.530 ,5,0,0.,4.8,0.,4.8,0.,4.8,0.,4.8
1989-08-26T18:05:05.330 ,5,0,0.,4.8,0.,4.8,0.,4.8,0.,4.8
1989-08-26T18:05:10.130 ,5,0,0.,4.8,0.,4.8,0.,4.8,0.,4.8
1989-08-26T18:05:14.930 ,5,0,0.,4.8,0.,4.8,0.,4.8,0.,4.8
1989-08-26T18:05:19.730 ,5,0,0.,4.8,0.,4.8,0.,4.8,0.,4.8
1989-08-26T18:05:24.530 ,5,0,0.,4.8,0.,4.8,0.,4.8,0.,4.8
1989-08-26T18:05:29.330 ,5,0,0.,4.8,0.,4.8,0.,4.8,0.,4.8
1989-08-26T18:05:34.130 ,5,0,0.,4.8,0.,4.8,0.,4.8,0.,4.8
1989-08-26T18:05:38.930 ,6,0,0.,4.8,0.,4.8,0.,4.8,0.,4.8
1989-08-26T18:05:43.730 ,6,0,0.,4.8,0.,4.8,0.,4.8,0.,4.8
1989-08-26T18:05:48.530 ,6,0,0.,4.8,0.,4.8,0.,4.8,0.,4.8
1989-08-26T18:05:53.330 ,6,0,0.,4.8,0.,4.8,0.,4.8,0.,4.8
1989-08-26T18:05:58.130 ,6,0,0.,4.8,0.,4.8,0.,4.8,0.,4.8
1989-08-26T18:06:02.930 ,6,0,0.,4.8,0.,4.8,0.,4.8,0.,4.8
1989-08-26T18:06:07.730 ,6,0,0.,4.8,0.,4.8,0.,4.8,0.,4.8
1989-08-26T18:06:12.530 ,6,0,0.,4.8,0.,4.8,0.,4.8,0.,4.8
1989-08-26T18:06:17.330 ,6,0,0.,4.8,0.,4.8,0.,4.8,0.,4.8
1989-08-26T18:06:22.130 ,6,0,0.,4.8,0.,4.8,0.,4.8,0.,4.8
1989-08-26T18:06:26.930 ,7,0,0.,4.8,0.,4.8,0.,4.8,0.,4.8
1989-08-26T18:06:31.730 ,7,0,0.,4.8,0.,4.8,0.,4.8,0.,4.8
1989-08-26T18:06:36.530 ,7,0,0.,4.8,0.,4.8,0.,4.8,0.,4.8
1989-08-26T18:06:41.330 ,7,0,0.,4.8,0.,4.8,0.,4.8,0.,4.8
1989-08-26T18:06:46.130 ,7,0,0.,4.8,0.,4.8,0.,4.8,0.,4.8
1989-08-26T18:06:50.930 ,7,0,0.,4.8,0.,4.8,0.,4.8,0.,4.8
1989-08-26T18:06:55.730 ,7,0,0.,4.8,0.,4.8,0.,4.8,0.,4.8
1989-08-26T18:07:00.530 ,7,0,0.,4.8,0.,4.8,0.,4.8,0.,4.8
1989-08-26T18:07:05.330 ,7,0,0.,4.8,0.,4.8,0.,4.8,0.,4.8
1989-08-26T18:07:10.130 ,7,0,0.,4.8,0.,4.8,0.,4.8,0.,4.8
1989-08-26T18:07:14.930 ,7,0,0.,4.8,0.,4.8,0.,4.8,0.,4.8
1989-08-26T18:07:19.730 ,7,0,0.,4.8,0.,4.8,0.,4.8,0.,4.8
1989-08-26T18:07:24.530 ,7,0,0.,4.8,0.,4.8,0.,4.8,0.,4.8
1989-08-26T18:07:29.330 ,7,0,0.,4.8,0.,4.8,0.,4.8,0.,4.8
1989-08-26T18:07:34.130 ,7,0,0.,4.8,0.,4.8,0.,4.8,0.,4.8
1989-08-26T18:07:38.930 ,7,0,0.,4.8,0.,4.8,0.,4.8,0.,4.8
1989-08-26T18:07:43.730 ,7,0,0.,4.8,0.,4.8,0.,4.8,0.,4.8
1989-08-26T18:07:48.530 ,7,0,0.,4.8,0.,4.8,0.,4.8,0.,4.8
1989-08-26T18:07:53.330 ,7,0,0.,4.8,0.,4.8,0.,4.8,0.,4.8
1989-08-26T18:07:58.130 ,7,0,0.,4.8,0.,4.8,0.,4.8,0.,4.8
1989-08-26T18:08:02.930 ,6,0,0.,4.8,0.,4.8,0.,4.8,0.,4.8
1989-08-26T18:08:07.730 ,6,0,0.,4.8,0.,4.8,0.,4.8,0.,4.8
1989-08-26T18:08:12.530 ,6,0,0.,4.8,0.,4.8,0.,4.8,0.,4.8
1989-08-26T18:08:17.330 ,6,0,0.,4.8,0.,4.8,0.,4.8,0.,4.8
1989-08-26T18:08:22.130 ,6,0,0.,4.8,0.,4.8,0.,4.8,0.,4.8
1989-08-26T18:08:26.930 ,6,0,0.,4.8,0.,4.8,0.,4.8,0.,4.8
1989-08-26T18:08:31.730 ,6,0,0.,4.8,0.,4.8,0.,4.8,0.,4.8
1989-08-26T18:08:36.530 ,6,0,0.,4.8,0.,4.8,0.,4.8,0.,4.8
1989-08-26T18:08:41.330 ,6,0,0.,4.8,0.,4.8,0.,4.8,0.,4.8
1989-08-26T18:08:46.130 ,6,0,0.,4.8,0.,4.8,0.,4.8,0.,4.8
1989-08-26T18:08:50.930 ,5,0,0.,4.8,0.,4.8,0.,4.8,0.,4.8
1989-08-26T18:08:55.730 ,5,0,0.,4.8,0.,4.8,0.,4.8,0.,4.8
1989-08-26T18:09:00.530 ,5,0,0.,4.8,0.,4.8,0.,4.8,0.,4.8
1989-08-26T18:09:05.330 ,5,0,0.,4.8,0.,4.8,0.,4.8,0.,4.8
1989-08-26T18:09:10.130 ,5,0,0.,4.8,0.,4.8,0.,4.8,0.,4.8
1989-08-26T18:09:14.930 ,5,0,0.,4.8,0.,4.8,0.,4.8,0.,4.8
1989-08-26T18:09:19.730 ,5,0,0.,4.8,0.,4.8,0.,4.8,0.,4.8
1989-08-26T18:09:24.530 ,5,0,0.,4.8,0.,4.8,0.,4.8,0.,4.8
1989-08-26T18:09:29.330 ,5,0,0.,4.8,0.,4.8,0.,4.8,0.,4.8
1989-08-26T18:09:34.130 ,5,0,0.,4.8,0.,4.8,0.,4.8,0.,4.8
1989-08-26T18:09:38.930 ,4,0,0.,4.8,0.,4.8,0.,4.8,0.,4.8
1989-08-26T18:09:43.730 ,4,0,0.,4.8,0.,4.8,0.,4.8,0.,4.8
1989-08-26T18:09:48.530 ,4,0,0.,4.8,0.,4.8,0.,4.8,0.,4.8
1989-08-26T18:09:53.330 ,4,0,0.,4.8,0.,4.8,0.,4.8,0.,4.8
1989-08-26T18:09:58.130 ,4,0,0.,4.8,0.,4.8,0.,4.8,0.,4.8
1989-08-26T18:10:02.930 ,4,0,0.,4.8,0.,4.8,0.,4.8,0.,4.8
1989-08-26T18:10:07.730 ,4,0,0.,4.8,0.,4.8,0.,4.8,0.,4.8
1989-08-26T18:10:12.530 ,4,0,0.,4.8,0.,4.8,0.,4.8,0.,4.8
1989-08-26T18:10:17.330 ,4,0,0.,4.8,0.,4.8,0.,4.8,0.,4.8
1989-08-26T18:10:22.130 ,4,0,0.,4.8,0.,4.8,0.,4.8,0.,4.8
1989-08-26T18:10:26.930 ,3,0,0.,4.8,0.,4.8,0.,4.8,0.,4.8
1989-08-26T18:10:31.730 ,3,0,0.,4.8,0.,4.8,0.,4.8,0.,4.8
1989-08-26T18:10:36.530 ,3,0,0.,4.8,0.,4.8,0.,4.8,0.,4.8
1989-08-26T18:10:41.330 ,3,0,0.,4.8,0.,4.8,0.,4.8,0.,4.8
1989-08-26T18:10:46.130 ,3,0,0.,4.8,0.,4.8,0.,4.8,0.,4.8
1989-08-26T18:10:50.930 ,3,0,0.,4.8,0.,4.8,0.,4.8,0.,4.8
1989-08-26T18:10:55.730 ,3,0,0.,4.8,0.,4.8,0.,4.8,0.,4.8
1989-08-26T18:11:00.530 ,3,0,0.,4.8,0.,4.8,0.,4.8,0.,4.8
1989-08-26T18:11:05.330 ,3,0,0.,4.8,0.,4.8,0.,4.8,0.,4.8
1989-08-26T18:11:10.130 ,3,0,0.,4.8,0.,4.8,0.,4.8,0.,4.8
1989-08-26T18:11:14.930 ,2,0,0.,4.8,0.,4.8,0.,4.8,0.,4.8
1989-08-26T18:11:19.730 ,2,0,0.,4.8,0.,4.8,0.,4.8,0.,4.8
1989-08-26T18:11:24.530 ,2,0,0.,4.8,0.,4.8,0.,4.8,0.,4.8
1989-08-26T18:11:29.330 ,2,0,0.,4.8,0.,4.8,0.,4.8,0.,4.8
1989-08-26T18:11:34.130 ,2,0,0.,4.8,0.,4.8,0.,4.8,0.,4.8
1989-08-26T18:11:38.930 ,2,0,0.,4.8,0.,4.8,0.,4.8,0.,4.8
1989-08-26T18:11:43.730 ,2,0,0.,4.8,0.,4.8,0.,4.8,0.,4.8
1989-08-26T18:11:48.530 ,2,0,0.,4.8,0.,4.8,0.,4.8,0.,4.8
1989-08-26T18:11:53.330 ,2,0,0.,4.8,0.,4.8,0.,4.8,0.,4.8
1989-08-26T18:11:58.130 ,2,0,0.,4.8,0.,4.8,0.,4.8,0.,4.8
1989-08-26T18:12:02.930 ,1,0,0.,4.8,0.,4.8,0.,4.8,0.,4.8
1989-08-26T18:12:07.730 ,1,0,0.,4.8,0.,4.8,0.,4.8,0.,4.8
1989-08-26T18:12:12.530 ,1,0,0.,4.8,0.,4.8,0.,4.8,0.,4.8
1989-08-26T18:12:17.330 ,1,0,0.,4.8,0.,4.8,0.,4.8,0.,4.8
1989-08-26T18:12:22.130 ,1,0,0.,4.8,0.,4.8,0.,4.8,0.,4.8
1989-08-26T18:12:26.930 ,1,0,0.,4.8,0.,4.8,0.,4.8,0.,4.8
1989-08-26T18:12:31.730 ,1,0,0.,4.8,0.,4.8,0.,4.8,0.,4.8
1989-08-26T18:12:36.530 ,1,0,0.,4.8,0.,4.8,0.,4.8,0.,4.8
1989-08-26T18:12:41.330 ,1,0,0.,4.8,0.,4.8,0.,4.8,0.,4.8
1989-08-26T18:12:46.130 ,1,0,0.,4.8,0.,4.8,0.,4.8,0.,4.8
1989-08-26T18:12:50.930 ,0,0,0.,4.8,0.,4.8,0.,4.8,0.,4.8
1989-08-26T18:12:55.730 ,0,0,0.,4.8,0.,4.8,0.,4.8,0.,4.8
1989-08-26T18:13:00.530 ,0,0,0.,4.8,0.,4.8,0.,4.8,0.,4.8
1989-08-26T18:13:05.330 ,0,0,0.,4.8,0.,4.8,0.,4.8,0.,4.8
1989-08-26T18:13:10.130 ,0,0,0.,4.8,0.,4.8,0.,4.8,0.,4.8
1989-08-26T18:13:14.930 ,0,0,0.,4.8,0.,4.8,0.,4.8,0.,4.8
1989-08-26T18:13:19.730 ,0,0,0.,4.8,0.,4.8,0.,4.8,0.,4.8
1989-08-26T18:13:24.530 ,0,0,0.,4.8,0.,4.8,0.,4.8,0.,4.8
1989-08-26T18:13:29.330 ,0,0,0.,4.8,0.,4.8,0.,4.8,0.,4.8
1989-08-26T18:13:34.130 ,0,0,0.,4.8,0.,4.8,0.,4.8,0.,4.8
1989-08-26T18:13:38.930 ,0,0,0.,4.8,0.,4.8,0.,4.8,0.,4.8
1989-08-26T18:13:43.730 ,0,0,0.,4.8,0.,4.8,0.,4.8,0.,4.8
1989-08-26T18:13:48.530 ,0,0,0.,4.8,0.,4.8,0.,4.8,0.,4.8
1989-08-26T18:13:53.330 ,0,0,0.,4.8,0.,4.8,0.,4.8,0.,4.8
1989-08-26T18:13:58.130 ,0,0,0.,4.8,0.,4.8,0.,4.8,0.,4.8
1989-08-26T18:14:02.930 ,0,0,0.,4.8,0.,4.8,0.,4.8,0.,4.8
1989-08-26T18:14:07.730 ,0,0,0.,4.8,0.,4.8,0.,4.8,0.,4.8
1989-08-26T18:14:12.530 ,0,0,0.,4.8,0.,4.8,0.,4.8,0.,4.8
1989-08-26T18:14:17.330 ,0,0,0.,4.8,0.,4.8,0.,4.8,0.,4.8
1989-08-26T18:14:22.130 ,0,0,0.,4.8,0.,4.8,0.,4.8,0.,4.8
1989-08-26T18:14:26.930 ,1,0,0.,4.8,0.,4.8,0.,4.8,0.,4.8
1989-08-26T18:14:31.730 ,1,0,0.,4.8,0.,4.8,0.,4.8,0.,4.8
1989-08-26T18:14:36.530 ,1,0,0.,4.8,0.,4.8,0.,4.8,0.,4.8
1989-08-26T18:14:41.330 ,1,0,0.,4.8,0.,4.8,0.,4.8,0.,4.8
1989-08-26T18:14:46.130 ,1,0,0.,4.8,0.,4.8,0.,4.8,0.,4.8
1989-08-26T18:14:50.930 ,1,0,0.,4.8,0.,4.8,0.,4.8,0.,4.8
1989-08-26T18:14:55.730 ,1,0,0.,4.8,0.,4.8,0.,4.8,0.,4.8
1989-08-26T18:15:00.530 ,1,0,0.,4.8,0.,4.8,0.,4.8,0.,4.8
1989-08-26T18:15:05.330 ,1,0,0.,4.8,0.,4.8,0.,4.8,0.,4.8
1989-08-26T18:15:10.130 ,1,0,0.,4.8,0.,4.8,0.,4.8,0.,4.8
1989-08-26T18:15:14.930 ,2,0,0.,4.8,0.,4.8,0.,4.8,0.,4.8
1989-08-26T18:15:19.730 ,2,0,0.,4.8,0.,4.8,0.,4.8,0.,4.8
1989-08-26T18:15:24.530 ,2,0,0.,4.8,0.,4.8,0.,4.8,0.,4.8
1989-08-26T18:15:29.330 ,2,0,0.,4.8,0.,4.8,0.,4.8,0.,4.8
1989-08-26T18:15:34.130 ,2,0,0.,4.8,0.,4.8,0.,4.8,0.,4.8
1989-08-26T18:15:38.930 ,2,0,0.,4.8,0.,4.8,0.,4.8,0.,4.8
1989-08-26T18:15:43.730 ,2,0,0.,4.8,0.,4.8,0.,4.8,0.,4.8
1989-08-26T18:15:48.530 ,2,0,0.,4.8,0.,4.8,0.,4.8,0.,4.8
1989-08-26T18:15:53.330 ,2,0,0.,4.8,0.,4.8,0.,4.8,0.,4.8
1989-08-26T18:15:58.130 ,2,0,0.,4.8,0.,4.8,0.,4.8,0.,4.8
1989-08-26T18:16:02.930 ,3,0,0.,4.8,0.,4.8,0.,4.8,0.,4.8
1989-08-26T18:16:07.730 ,3,0,0.,4.8,0.,4.8,0.,4.8,0.,4.8
1989-08-26T18:16:12.530 ,3,0,0.,4.8,0.,4.8,0.,4.8,0.,4.8
1989-08-26T18:16:17.330 ,3,0,0.,4.8,0.,4.8,0.,4.8,0.,4.8
1989-08-26T18:16:22.130 ,3,0,0.,4.8,0.,4.8,0.,4.8,0.,4.8
1989-08-26T18:16:26.930 ,3,0,0.,4.8,0.,4.8,0.,4.8,0.,4.8
1989-08-26T18:16:31.730 ,3,0,0.,4.8,0.,4.8,0.,4.8,0.,4.8
1989-08-26T18:16:36.530 ,3,0,0.,4.8,0.,4.8,0.,4.8,0.,4.8
1989-08-26T18:16:41.330 ,3,0,0.,4.8,0.,4.8,0.,4.8,0.,4.8
1989-08-26T18:16:46.130 ,3,0,0.,4.8,0.,4.8,0.,4.8,0.,4.8
1989-08-26T18:16:50.930 ,4,0,0.,4.8,0.,4.8,0.,4.8,0.,4.8
1989-08-26T18:16:55.730 ,4,0,0.,4.8,0.,4.8,0.,4.8,0.,4.8
1989-08-26T18:17:00.530 ,4,0,0.,4.8,0.,4.8,0.,4.8,0.,4.8
1989-08-26T18:17:05.330 ,4,0,0.,4.8,0.,4.8,0.,4.8,0.,4.8
1989-08-26T18:17:10.130 ,4,0,0.,4.8,0.,4.8,0.,4.8,0.,4.8
1989-08-26T18:17:14.930 ,4,0,0.,4.8,0.,4.8,0.,4.8,0.,4.8
1989-08-26T18:17:19.730 ,4,0,0.,4.8,0.,4.8,0.,4.8,0.,4.8
1989-08-26T18:17:24.530 ,4,0,0.,4.8,0.,4.8,0.,4.8,0.,4.8
1989-08-26T18:17:29.330 ,4,0,0.,4.8,0.,4.8,0.,4.8,0.,4.8
1989-08-26T18:17:34.130 ,4,0,0.,4.8,0.,4.8,0.,4.8,0.,4.8
1989-08-26T18:17:38.930 ,5,0,0.,4.8,0.,4.8,0.,4.8,0.,4.8
1989-08-26T18:17:43.730 ,5,0,0.,4.8,0.,4.8,0.,4.8,0.,4.8
1989-08-26T18:17:48.530 ,5,0,0.,4.8,0.,4.8,0.,4.8,0.,4.8
1989-08-26T18:17:53.330 ,5,0,0.,4.8,0.,4.8,0.,4.8,0.,4.8
1989-08-26T18:17:58.130 ,5,0,0.,4.8,0.,4.8,0.,4.8,0.,4.8
1989-08-26T18:18:02.930 ,5,0,0.,4.8,0.,4.8,0.,4.8,0.,4.8
1989-08-26T18:18:07.730 ,5,0,0.,4.8,0.,4.8,0.,4.8,0.,4.8
1989-08-26T18:18:12.530 ,5,0,0.,4.8,0.,4.8,0.,4.8,0.,4.8
1989-08-26T18:18:17.330 ,5,0,0.,4.8,0.,4.8,0.,4.8,0.,4.8
1989-08-26T18:18:22.130 ,5,0,0.,4.8,0.,4.8,0.,4.8,0.,4.8
1989-08-26T18:18:26.930 ,6,0,0.,4.8,0.,4.8,0.,4.8,0.,4.8
1989-08-26T18:18:31.730 ,6,0,0.,4.8,0.,4.8,0.,4.8,0.,4.8
1989-08-26T18:18:36.530 ,6,0,0.,4.8,0.,4.8,0.,4.8,0.,4.8
1989-08-26T18:18:41.330 ,6,0,0.,4.8,0.,4.8,0.,4.8,0.,4.8
1989-08-26T18:18:46.130 ,6,0,0.,4.8,0.,4.8,0.,4.8,0.,4.8
1989-08-26T18:18:50.930 ,6,0,0.,4.8,0.,4.8,0.,4.8,0.,4.8
1989-08-26T18:18:55.730 ,6,0,0.,4.8,0.,4.8,0.,4.8,0.,4.8
1989-08-26T18:19:00.530 ,6,0,0.,4.8,0.,4.8,0.,4.8,0.,4.8
1989-08-26T18:19:05.330 ,6,0,0.,4.8,0.,4.8,0.,4.8,0.,4.8
1989-08-26T18:19:10.130 ,6,0,0.,4.8,0.,4.8,0.,4.8,0.,4.8
1989-08-26T18:19:14.930 ,7,0,0.,4.8,0.,4.8,0.,4.8,0.,4.8
1989-08-26T18:19:19.730 ,7,0,0.,4.8,0.,4.8,0.,4.8,0.,4.8
1989-08-26T18:19:24.530 ,7,0,0.,4.8,0.,4.8,0.,4.8,0.,4.8
1989-08-26T18:19:29.330 ,7,0,0.,4.8,0.,4.8,0.,4.8,0.,4.8
1989-08-26T18:19:34.130 ,7,0,0.,4.8,0.,4.8,0.,4.8,0.,4.8
1989-08-26T18:19:38.930 ,7,0,0.,4.8,0.,4.8,0.,4.8,0.,4.8
1989-08-26T18:19:43.730 ,7,0,0.,4.8,0.,4.8,0.,4.8,0.,4.8
1989-08-26T18:19:48.530 ,7,0,0.,4.8,0.,4.8,0.,4.8,0.,4.8
1989-08-26T18:19:53.330 ,7,0,0.,4.8,0.,4.8,0.,4.8,0.,4.8
1989-08-26T18:19:58.130 ,7,0,0.,4.8,0.,4.8,0.,4.8,0.,4.8
1989-08-26T18:20:02.930 ,7,0,0.,4.8,0.,4.8,0.,4.8,0.,4.8
1989-08-26T18:20:07.730 ,7,0,0.,4.8,0.,4.8,0.,4.8,0.,4.8
1989-08-26T18:20:12.530 ,7,0,0.,4.8,0.,4.8,0.,4.8,0.,4.8
1989-08-26T18:20:17.330 ,7,0,0.,4.8,0.,4.8,0.,4.8,0.,4.8
1989-08-26T18:20:22.130 ,7,0,0.,4.8,0.,4.8,0.,4.8,0.,4.8
1989-08-26T18:20:26.930 ,7,0,0.,4.8,0.,4.8,0.,4.8,0.,4.8
1989-08-26T18:20:31.730 ,7,0,0.,4.8,0.,4.8,0.,4.8,0.,4.8
1989-08-26T18:20:36.530 ,7,0,0.,4.8,0.,4.8,0.,4.8,0.,4.8
1989-08-26T18:20:41.330 ,7,0,0.,4.8,0.,4.8,0.,4.8,0.,4.8
1989-08-26T18:20:46.130 ,7,0,0.,4.8,0.,4.8,0.,4.8,0.,4.8
1989-08-26T18:20:50.930 ,6,0,0.,4.8,0.,4.8,0.,4.8,0.,4.8
1989-08-26T18:20:55.730 ,6,0,0.,4.8,0.,4.8,0.,4.8,0.,4.8
1989-08-26T18:21:00.530 ,6,0,0.,4.8,0.,4.8,0.,4.8,0.,4.8
1989-08-26T18:21:05.330 ,6,0,0.,4.8,0.,4.8,0.,4.8,0.,4.8
1989-08-26T18:21:10.130 ,6,0,0.,4.8,0.,4.8,0.,4.8,0.,4.8
1989-08-26T18:21:14.930 ,6,0,0.,4.8,0.,4.8,0.,4.8,0.,4.8
1989-08-26T18:21:19.730 ,6,0,0.,4.8,0.,4.8,0.,4.8,0.,4.8
1989-08-26T18:21:24.530 ,6,0,0.,4.8,0.,4.8,0.,4.8,0.,4.8
1989-08-26T18:21:29.330 ,6,0,0.,4.8,0.,4.8,0.,4.8,0.,4.8
1989-08-26T18:21:34.130 ,6,0,0.,4.8,0.,4.8,0.,4.8,0.,4.8
1989-08-26T18:21:38.930 ,5,0,0.,4.8,0.,4.8,0.,4.8,0.,4.8
1989-08-26T18:21:43.730 ,5,0,0.,4.8,0.,4.8,0.,4.8,0.,4.8
1989-08-26T18:21:48.530 ,5,0,0.,4.8,0.,4.8,0.,4.8,0.,4.8
1989-08-26T18:21:53.330 ,5,0,0.,4.8,0.,4.8,0.,4.8,0.,4.8
1989-08-26T18:21:58.130 ,5,0,0.,4.8,0.,4.8,0.,4.8,0.,4.8
1989-08-26T18:22:02.930 ,5,0,0.,4.8,0.,4.8,0.,4.8,0.,4.8
1989-08-26T18:22:07.730 ,5,0,0.,4.8,0.,4.8,0.,4.8,0.,4.8
1989-08-26T18:22:12.530 ,5,0,0.,4.8,0.,4.8,0.,4.8,0.,4.8
1989-08-26T18:22:17.330 ,5,0,0.,4.8,0.,4.8,0.,4.8,0.,4.8
1989-08-26T18:22:22.130 ,5,0,0.,4.8,0.,4.8,0.,4.8,0.,4.8
1989-08-26T18:22:26.930 ,4,0,0.,4.8,0.,4.8,0.,4.8,0.,4.8
1989-08-26T18:22:31.730 ,4,0,0.,4.8,0.,4.8,0.,4.8,0.,4.8
1989-08-26T18:22:36.530 ,4,0,0.,4.8,0.,4.8,0.,4.8,0.,4.8
1989-08-26T18:22:41.330 ,4,0,0.,4.8,0.,4.8,0.,4.8,0.,4.8
1989-08-26T18:22:46.130 ,4,0,0.,4.8,0.,4.8,0.,4.8,0.,4.8
1989-08-26T18:22:50.930 ,4,0,0.,4.8,0.,4.8,0.,4.8,0.,4.8
1989-08-26T18:22:55.730 ,4,0,0.,4.8,0.,4.8,0.,4.8,0.,4.8
1989-08-26T18:23:00.530 ,4,0,0.,4.8,0.,4.8,0.,4.8,0.,4.8
1989-08-26T18:23:05.330 ,4,0,0.,4.8,0.,4.8,0.,4.8,0.,4.8
1989-08-26T18:23:10.130 ,4,0,0.,4.8,0.,4.8,0.,4.8,0.,4.8
1989-08-26T18:23:14.930 ,3,0,0.,4.8,0.,4.8,0.,4.8,0.,4.8
1989-08-26T18:23:19.730 ,3,0,0.,4.8,0.,4.8,0.,4.8,0.,4.8
1989-08-26T18:23:24.530 ,3,0,0.,4.8,0.,4.8,0.,4.8,0.,4.8
1989-08-26T18:23:29.330 ,3,0,0.,4.8,0.,4.8,0.,4.8,0.,4.8
1989-08-26T18:23:34.130 ,3,0,0.,4.8,0.,4.8,0.,4.8,0.,4.8
1989-08-26T18:23:38.930 ,0,0,0.,4.8,0.,4.8,0.,4.8,0.,4.8
1989-08-26T18:23:43.730 ,0,0,0.,4.8,0.,4.8,0.,4.8,0.,4.8
1989-08-26T18:23:48.530 ,0,0,0.,4.8,0.,4.8,0.,4.8,0.,4.8
1989-08-26T18:23:53.330 ,0,0,0.,4.8,0.,4.8,0.,4.8,0.,4.8
1989-08-26T18:23:58.130 ,0,0,,0,,0,,0,,0
1989-08-26T18:24:50.330 ,0,0,,0,,0,,0,,0
1989-08-26T18:24:55.130 ,0,0,,0,,0,,0,,0
1989-08-26T18:24:59.930 ,0,0,,0,,0,,0,,0
1989-08-26T18:25:04.730 ,0,0,,0,,0,,0,,0
1989-08-26T18:25:09.530 ,0,0,,0,,0,,0,,0
1989-08-26T18:24:50.930 ,0,0,0.,4.8,0.,4.8,0.,4.8,0.,4.8
1989-08-26T18:24:55.730 ,0,0,0.,4.8,0.,4.8,0.,4.8,0.,4.8
1989-08-26T18:25:00.530 ,0,0,0.,4.8,0.,4.8,0.,4.8,0.,4.8
1989-08-26T18:25:05.330 ,0,0,0.,4.8,0.,4.8,0.,4.8,0.,4.8
1989-08-26T18:25:10.130 ,0,0,0.,4.8,0.,4.8,0.,4.8,0.,4.8
1989-08-26T18:25:14.930 ,0,0,0.,4.8,0.,4.8,0.,4.8,0.,4.8
1989-08-26T18:25:19.730 ,0,0,0.,4.8,0.,4.8,0.,4.8,0.,4.8
1989-08-26T18:25:24.530 ,0,0,0.,4.8,0.,4.8,0.,4.8,0.,4.8
1989-08-26T18:25:29.330 ,0,0,0.,4.8,0.,4.8,0.,4.8,0.,4.8
1989-08-26T18:25:34.130 ,0,0,0.,4.8,0.,4.8,0.,4.8,0.,4.8
1989-08-26T18:25:38.930 ,0,0,0.,4.8,0.,4.8,0.,4.8,0.,4.8
1989-08-26T18:25:43.730 ,0,0,0.,4.8,0.,4.8,0.,4.8,0.,4.8
1989-08-26T18:25:48.530 ,0,0,0.,4.8,0.,4.8,0.,4.8,0.,4.8
1989-08-26T18:25:53.330 ,0,0,0.,4.8,0.,4.8,0.,4.8,0.,4.8
1989-08-26T18:25:58.130 ,0,0,0.,4.8,0.,4.8,0.,4.8,0.,4.8
1989-08-26T18:26:02.930 ,0,0,0.,4.8,0.,4.8,0.,4.8,0.,4.8
1989-08-26T18:26:07.730 ,0,0,0.,4.8,0.,4.8,0.,4.8,0.,4.8
1989-08-26T18:26:12.530 ,0,0,0.,4.8,0.,4.8,0.,4.8,0.,4.8
1989-08-26T18:26:17.330 ,0,0,0.,4.8,0.,4.8,0.,4.8,0.,4.8
1989-08-26T18:26:22.130 ,0,0,0.,4.8,0.,4.8,0.,4.8,0.,4.8
1989-08-26T18:26:26.930 ,0,0,0.,4.8,0.,4.8,0.,4.8,0.,4.8
1989-08-26T18:26:31.730 ,0,0,0.,4.8,0.,4.8,0.,4.8,0.,4.8
1989-08-26T18:26:36.530 ,0,0,0.,4.8,0.,4.8,0.,4.8,0.,4.8
1989-08-26T18:26:41.330 ,0,0,0.,4.8,0.,4.8,0.,4.8,0.,4.8
1989-08-26T18:26:46.130 ,0,0,0.,4.8,0.,4.8,0.,4.8,0.,4.8
1989-08-26T18:26:50.930 ,0,0,0.,4.8,0.,4.8,0.,4.8,0.,4.8
1989-08-26T18:26:55.730 ,0,0,0.,4.8,0.,4.8,0.,4.8,0.,4.8
1989-08-26T18:27:00.530 ,0,0,0.,4.8,0.,4.8,0.,4.8,0.,4.8
1989-08-26T18:27:05.330 ,0,0,0.,4.8,0.,4.8,0.,4.8,0.,4.8
1989-08-26T18:27:10.130 ,0,0,0.,4.8,0.,4.8,0.,4.8,0.,4.8
1989-08-26T18:27:14.930 ,1,0,0.,4.8,0.,4.8,0.,4.8,0.,4.8
1989-08-26T18:27:19.730 ,1,0,0.,4.8,0.,4.8,0.,4.8,0.,4.8
1989-08-26T18:27:24.530 ,1,0,0.,4.8,0.,4.8,0.,4.8,0.,4.8
1989-08-26T18:27:29.330 ,1,0,0.,4.8,0.,4.8,0.,4.8,0.,4.8
1989-08-26T18:27:34.130 ,1,0,0.,4.8,0.,4.8,0.,4.8,0.,4.8
1989-08-26T18:27:38.930 ,1,0,0.,4.8,0.,4.8,0.,4.8,0.,4.8
1989-08-26T18:27:43.730 ,1,0,0.,4.8,0.,4.8,0.,4.8,0.,4.8
1989-08-26T18:27:48.530 ,1,0,0.,4.8,0.,4.8,0.,4.8,0.,4.8
1989-08-26T18:27:53.330 ,1,0,0.,4.8,0.,4.8,0.,4.8,0.,4.8
1989-08-26T18:27:58.130 ,1,0,0.,4.8,0.,4.8,0.,4.8,0.,4.8
1989-08-26T18:28:02.930 ,2,0,0.,4.8,0.,4.8,0.,4.8,0.,4.8
1989-08-26T18:28:07.730 ,2,0,0.,4.8,0.,4.8,0.,4.8,0.,4.8
1989-08-26T18:28:12.530 ,2,0,0.,4.8,0.,4.8,0.,4.8,0.,4.8
1989-08-26T18:28:17.330 ,2,0,0.,4.8,0.,4.8,0.,4.8,0.,4.8
1989-08-26T18:28:22.130 ,2,0,0.,4.8,0.,4.8,0.,4.8,0.,4.8
1989-08-26T18:28:26.930 ,2,0,0.,4.8,0.,4.8,0.,4.8,0.,4.8
1989-08-26T18:28:31.730 ,2,0,0.,4.8,0.,4.8,0.,4.8,0.,4.8
1989-08-26T18:28:36.530 ,2,0,0.,4.8,0.,4.8,0.,4.8,0.,4.8
1989-08-26T18:28:41.330 ,2,0,0.,4.8,0.,4.8,0.,4.8,0.,4.8
1989-08-26T18:28:46.130 ,2,0,0.,4.8,0.,4.8,0.,4.8,0.,4.8
1989-08-26T18:28:50.930 ,3,0,0.,4.8,0.,4.8,0.,4.8,0.,4.8
1989-08-26T18:28:55.730 ,3,0,0.,4.8,0.,4.8,0.,4.8,0.,4.8
1989-08-26T18:29:00.530 ,3,0,0.,4.8,0.,4.8,0.,4.8,0.,4.8
1989-08-26T18:29:05.330 ,3,0,0.,4.8,0.,4.8,0.,4.8,0.,4.8
1989-08-26T18:29:10.130 ,3,0,0.,4.8,0.,4.8,0.,4.8,0.,4.8
1989-08-26T18:29:14.930 ,3,0,0.,4.8,0.,4.8,0.,4.8,0.,4.8
1989-08-26T18:29:19.730 ,3,0,0.,4.8,0.,4.8,0.,4.8,0.,4.8
1989-08-26T18:29:24.530 ,3,0,0.,4.8,0.,4.8,0.,4.8,0.,4.8
1989-08-26T18:29:29.330 ,3,0,0.,4.8,0.,4.8,0.,4.8,0.,4.8
1989-08-26T18:29:34.130 ,3,0,0.,4.8,0.,4.8,0.,4.8,0.,4.8
1989-08-26T18:29:38.930 ,4,0,0.,4.8,0.,4.8,0.,4.8,0.,4.8
1989-08-26T18:29:43.730 ,4,0,0.,4.8,0.,4.8,0.,4.8,0.,4.8
1989-08-26T18:29:48.530 ,4,0,0.,4.8,0.,4.8,0.,4.8,0.,4.8
1989-08-26T18:29:53.330 ,4,0,0.,4.8,0.,4.8,0.,4.8,0.,4.8
1989-08-26T18:29:58.130 ,4,0,0.,4.8,0.,4.8,0.,4.8,0.,4.8
1989-08-26T18:30:02.930 ,4,0,0.,4.8,0.,4.8,0.,4.8,0.,4.8
1989-08-26T18:30:07.730 ,4,0,0.,4.8,0.,4.8,0.,4.8,0.,4.8
1989-08-26T18:30:12.530 ,4,0,0.,4.8,0.,4.8,0.,4.8,0.,4.8
1989-08-26T18:30:17.330 ,4,0,0.,4.8,0.,4.8,0.,4.8,0.,4.8
1989-08-26T18:30:22.130 ,4,0,0.,4.8,0.,4.8,0.,4.8,0.,4.8
1989-08-26T18:30:26.930 ,5,0,0.,4.8,0.,4.8,0.,4.8,0.,4.8
1989-08-26T18:30:31.730 ,5,0,0.,4.8,0.,4.8,0.,4.8,0.,4.8
1989-08-26T18:30:36.530 ,5,0,0.,4.8,0.,4.8,0.,4.8,0.,4.8
1989-08-26T18:30:41.330 ,5,0,0.,4.8,0.,4.8,0.,4.8,0.,4.8
1989-08-26T18:30:46.130 ,5,0,0.,4.8,0.,4.8,0.,4.8,0.,4.8
1989-08-26T18:30:50.930 ,5,0,0.,4.8,0.,4.8,0.,4.8,0.,4.8
1989-08-26T18:30:55.730 ,5,0,0.,4.8,0.,4.8,0.,4.8,0.,4.8
1989-08-26T18:31:00.530 ,5,0,0.,4.8,0.,4.8,0.,4.8,0.,4.8
1989-08-26T18:31:05.330 ,5,0,0.,4.8,0.,4.8,0.,4.8,0.,4.8
1989-08-26T18:31:10.130 ,5,0,0.,4.8,0.,4.8,0.,4.8,0.,4.8
1989-08-26T18:31:14.930 ,6,0,0.,4.8,0.,4.8,0.,4.8,0.,4.8
1989-08-26T18:31:19.730 ,6,0,0.,4.8,0.,4.8,0.,4.8,0.,4.8
1989-08-26T18:31:24.530 ,6,0,0.,4.8,0.,4.8,0.,4.8,0.,4.8
1989-08-26T18:31:29.330 ,6,0,0.,4.8,0.,4.8,0.,4.8,0.,4.8
1989-08-26T18:31:34.130 ,6,0,0.,4.8,0.,4.8,0.,4.8,0.,4.8
1989-08-26T18:31:38.930 ,6,0,0.,4.8,0.,4.8,0.,4.8,0.,4.8
1989-08-26T18:31:43.730 ,6,0,0.,4.8,0.,4.8,0.,4.8,0.,4.8
1989-08-26T18:31:48.530 ,6,0,0.,4.8,0.,4.8,0.,4.8,0.,4.8
1989-08-26T18:31:53.330 ,6,0,0.,4.8,0.,4.8,0.,4.8,0.,4.8
1989-08-26T18:31:58.130 ,6,0,0.,4.8,0.,4.8,0.,4.8,0.,4.8
1989-08-26T18:32:02.930 ,7,0,0.,4.8,0.,4.8,0.,4.8,0.,4.8
1989-08-26T18:32:07.730 ,7,0,0.,4.8,0.,4.8,0.,4.8,0.,4.8
1989-08-26T18:32:12.530 ,7,0,0.,4.8,0.,4.8,0.,4.8,0.,4.8
1989-08-26T18:32:17.330 ,7,0,0.,4.8,0.,4.8,0.,4.8,0.,4.8
1989-08-26T18:32:22.130 ,7,0,0.,4.8,0.,4.8,0.,4.8,0.,4.8
1989-08-26T18:32:26.930 ,7,0,0.,4.8,0.,4.8,0.,4.8,0.,4.8
1989-08-26T18:32:31.730 ,7,0,0.,4.8,0.,4.8,0.,4.8,0.,4.8
1989-08-26T18:32:36.530 ,7,0,0.,4.8,0.,4.8,0.,4.8,0.,4.8
1989-08-26T18:32:41.330 ,7,0,0.,4.8,0.,4.8,0.,4.8,0.,4.8
1989-08-26T18:32:46.130 ,7,0,0.,4.8,0.,4.8,0.,4.8,0.,4.8
1989-08-26T18:32:50.930 ,7,0,0.,4.8,0.,4.8,0.,4.8,0.,4.8
1989-08-26T18:32:55.730 ,7,0,0.,4.8,0.,4.8,0.,4.8,0.,4.8
1989-08-26T18:33:00.530 ,7,0,0.,4.8,0.,4.8,0.,4.8,0.,4.8
1989-08-26T18:33:05.330 ,7,0,0.,4.8,0.,4.8,0.,4.8,0.,4.8
1989-08-26T18:33:10.130 ,7,0,0.,4.8,0.,4.8,0.,4.8,0.,4.8
1989-08-26T18:33:14.930 ,7,0,0.,4.8,0.,4.8,0.,4.8,0.,4.8
1989-08-26T18:33:19.730 ,7,0,0.,4.8,0.,4.8,0.,4.8,0.,4.8
1989-08-26T18:33:24.530 ,7,0,0.,4.8,0.,4.8,0.,4.8,0.,4.8
1989-08-26T18:33:29.330 ,7,0,0.,4.8,0.,4.8,0.,4.8,0.,4.8
1989-08-26T18:33:34.130 ,7,0,0.,4.8,0.,4.8,0.,4.8,0.,4.8
1989-08-26T18:33:38.930 ,6,0,0.,4.8,0.,4.8,0.,4.8,0.,4.8
1989-08-26T18:33:43.730 ,6,0,0.,4.8,0.,4.8,0.,4.8,0.,4.8
1989-08-26T18:33:48.530 ,6,0,0.,4.8,0.,4.8,0.,4.8,0.,4.8
1989-08-26T18:33:53.330 ,6,0,0.,4.8,0.,4.8,0.,4.8,0.,4.8